| time (UTC) | temp F | wind direction | speed MPH | gust MPH | rain 1hr in | rain 24hr in | rain mn in | humidity % | barometer mb |
| 20260504021534 | 74 | 109 | 5.0 | 14.0 | 0.00 | 0.00 | 0.00 | 63 | 1017.2 |
| 20260504020042 | 75 | 95 | 5.0 | 10.0 | 0.00 | 0.00 | 0.00 | 62 | 1017.0 |
| 20260504014553 | 75 | 106 | 6.0 | 11.0 | 0.00 | 0.00 | 0.00 | 60 | 1016.8 |
| 20260504013041 | 76 | 116 | 3.0 | 8.0 | 0.00 | 0.00 | 0.00 | 59 | 1016.7 |
| 20260504011533 | 76 | 109 | 4.0 | 10.0 | 0.00 | 0.00 | 0.00 | 57 | 1016.5 |
| 20260504010035 | 77 | 94 | 4.0 | 9.0 | 0.00 | 0.00 | 0.00 | 56 | 1016.6 |
| 20260504004540 | 78 | 112 | 4.0 | 11.0 | 0.00 | 0.00 | 0.00 | 55 | 1016.6 |
| 20260504003043 | 79 | 106 | 7.0 | 11.0 | 0.00 | 0.00 | 0.00 | 54 | 1016.3 |
| 20260504001547 | 80 | 53 | 4.0 | 9.0 | 0.00 | 0.00 | 0.00 | 52 | 1016.4 |
| 20260504000044 | 81 | 110 | 6.0 | 12.0 | 0.00 | 0.00 | 0.00 | 52 | 1016.2 |
| 20260503234541 | 81 | 128 | 9.0 | 14.0 | 0.00 | 0.00 | 0.00 | 51 | 1016.2 |
| 20260503233050 | 82 | 97 | 4.0 | 13.0 | 0.00 | 0.00 | 0.00 | 50 | 1016.2 |
| 20260503231544 | 82 | 105 | 4.0 | 14.0 | 0.00 | 0.00 | 0.00 | 50 | 1016.4 |
| 20260503230040 | 83 | 73 | 3.0 | 10.0 | 0.00 | 0.00 | 0.00 | 49 | 1016.5 |
| 20260503224542 | 83 | 109 | 5.0 | 11.0 | 0.00 | 0.00 | 0.00 | 49 | 1016.6 |
| 20260503223035 | 82 | 80 | 5.0 | 12.0 | 0.00 | 0.00 | 0.00 | 49 | 1016.7 |
| 20260503221550 | 84 | 88 | 6.0 | 13.0 | 0.00 | 0.00 | 0.00 | 47 | 1016.9 |
| 20260503220047 | 83 | 95 | 4.0 | 13.0 | 0.00 | 0.00 | 0.00 | 47 | 1017.2 |
| 20260503214538 | 84 | 98 | 4.0 | 11.0 | 0.00 | 0.00 | 0.00 | 47 | 1017.3 |
| 20260503213039 | 84 | 67 | 3.0 | 11.0 | 0.00 | 0.00 | 0.00 | 46 | 1017.9 |
| 20260503211540 | 84 | 31 | 4.0 | 16.0 | 0.00 | 0.00 | 0.00 | 45 | 1017.7 |
| 20260503210048 | 84 | 88 | 4.0 | 10.0 | 0.00 | 0.00 | 0.00 | 45 | 1018.0 |
| 20260503204557 | 84 | 87 | 4.0 | 14.0 | 0.00 | 0.00 | 0.00 | 46 | 1018.3 |
| 20260503203038 | 84 | 119 | 4.0 | 9.0 | 0.00 | 0.00 | 0.00 | 46 | 1018.5 |
| 20260503201539 | 83 | 117 | 2.0 | 12.0 | 0.00 | 0.00 | 0.00 | 46 | 1019.0 |
| 20260503200044 | 82 | 110 | 3.0 | 9.0 | 0.00 | 0.00 | 0.00 | 48 | 1019.5 |
| 20260503194545 | 82 | 91 | 4.0 | 10.0 | 0.00 | 0.00 | 0.00 | 48 | 1019.9 |
| 20260503193042 | 80 | 28 | 7.0 | 12.0 | 0.00 | 0.00 | 0.00 | 49 | 1020.0 |
| 20260503191538 | 81 | 151 | 5.0 | 10.0 | 0.00 | 0.00 | 0.00 | 48 | 1020.2 |
| 20260503190046 | 81 | 163 | 7.0 | 12.0 | 0.00 | 0.00 | 0.00 | 47 | 1020.4 |
| 20260503184537 | 83 | 0 | 3.0 | 12.0 | 0.00 | 0.00 | 0.00 | 47 | 1020.6 |
| 20260503183051 | 81 | 92 | 3.0 | 10.0 | 0.00 | 0.00 | 0.00 | 47 | 1021.0 |
| 20260503181542 | 81 | 119 | 6.0 | 11.0 | 0.00 | 0.00 | 0.00 | 48 | 1021.3 |
| 20260503180044 | 81 | 52 | 2.0 | 12.0 | 0.00 | 0.00 | 0.00 | 50 | 1021.5 |
| 20260503174540 | 81 | 68 | 4.0 | 10.0 | 0.00 | 0.00 | 0.00 | 49 | 1021.6 |
| 20260503173101 | 80 | 79 | 3.0 | 13.0 | 0.00 | 0.00 | 0.00 | 51 | 1022.0 |
| 20260503171546 | 79 | 104 | 5.0 | 12.0 | 0.00 | 0.00 | 0.00 | 52 | 1022.3 |
| 20260503081551 | 64 | 0 | 0.0 | 0.0 | 0.00 | 0.01 | 0.00 | 78 | 1021.1 |
| 20260503071541 | 65 | 0 | 0.0 | 1.0 | 0.00 | 0.01 | 0.00 | 75 | 1021.3 |
| 20260503054540 | 68 | 0 | 0.0 | 0.0 | 0.00 | 0.01 | 0.00 | 70 | 1022.0 |
| 20260503053041 | 68 | 0 | 0.0 | 2.0 | 0.00 | 0.01 | 0.00 | 68 | 1022.1 |
| 20260503051540 | 68 | 95 | 1.0 | 4.0 | 0.00 | 0.01 | 0.00 | 68 | 1022.0 |
| 20260503050040 | 67 | 0 | 0.0 | 2.0 | 0.00 | 0.01 | 0.00 | 69 | 1022.0 |
| 20260503044541 | 67 | 0 | 0.0 | 2.0 | 0.00 | 0.01 | 0.01 | 70 | 1022.1 |
| 20260503043042 | 67 | 0 | 0.0 | 2.0 | 0.00 | 0.01 | 0.01 | 70 | 1021.9 |
| 20260503041543 | 67 | 0 | 0.0 | 1.0 | 0.00 | 0.01 | 0.01 | 70 | 1021.7 |
| 20260503040042 | 67 | 0 | 0.0 | 2.0 | 0.00 | 0.01 | 0.01 | 70 | 1021.5 |
| 20260503034538 | 67 | 85 | 0.0 | 3.0 | 0.00 | 0.01 | 0.01 | 70 | 1021.7 |
| 20260503033034 | 67 | 0 | 0.0 | 2.0 | 0.00 | 0.01 | 0.01 | 70 | 1021.7 |
| 20260503031548 | 67 | 85 | 0.0 | 2.0 | 0.00 | 0.01 | 0.01 | 69 | 1021.5 |
| 20260503030041 | 67 | 85 | 1.0 | 3.0 | 0.00 | 0.01 | 0.01 | 68 | 1021.3 |
| 20260503024543 | 67 | 79 | 0.0 | 3.0 | 0.00 | 0.01 | 0.01 | 68 | 1020.8 |
| 20260503023056 | 68 | 78 | 1.0 | 3.0 | 0.00 | 0.01 | 0.01 | 67 | 1020.6 |